Time,TemperatureF,DewpointF,PressureIn,WindDirection,WindDirectionDegrees,WindSpeedMPH,WindSpeedGustMPH,Humidity,HourlyPrecipIn,Conditions,Clouds,dailyrainin,SoftwareType,DateUTC
2013-03-06 00:01:00,33.0,1.0,-100.00,WSW,250,8.0,12.0,24,0.00,,,-99.99,,2013-03-06 07:01:00,
2013-03-06 00:11:00,34.0,1.0,-100.00,West,265,8.0,12.0,24,0.00,,,-99.99,,2013-03-06 07:11:00,
2013-03-06 00:22:00,33.0,1.0,-100.00,West,260,8.0,12.0,25,0.00,,,-99.99,,2013-03-06 07:22:00,
2013-03-06 00:32:00,33.0,1.0,-100.00,WSW,250,7.0,13.0,25,0.00,,,-99.99,,2013-03-06 07:32:00,
2013-03-06 00:42:00,34.0,2.0,-100.00,WSW,255,10.0,19.0,25,0.00,,,-99.99,,2013-03-06 07:42:00,
2013-03-06 00:52:00,34.0,3.0,-100.00,SW,230,15.0,22.0,25,0.00,,,-99.99,,2013-03-06 07:52:00,
2013-03-06 01:01:00,34.0,3.0,-100.00,WSW,245,18.0,26.0,26,0.00,,,-99.99,,2013-03-06 08:01:00,
2013-03-06 01:11:00,35.0,3.0,-100.00,WSW,240,18.0,26.0,26,0.00,,,-99.99,,2013-03-06 08:11:00,
2013-03-06 01:21:00,34.0,4.0,-100.00,WSW,250,14.0,22.0,26,0.00,,,-99.99,,2013-03-06 08:21:00,
2013-03-06 01:32:00,35.0,4.0,-100.00,WSW,240,17.0,24.0,26,0.00,,,-99.99,,2013-03-06 08:32:00,
2013-03-06 01:42:00,35.0,4.0,-100.00,SW,235,21.0,26.0,26,0.00,,,-99.99,,2013-03-06 08:42:00,
2013-03-06 01:52:00,35.0,5.0,-100.00,SW,235,26.0,34.0,27,0.00,,,-99.99,,2013-03-06 08:52:00,
2013-03-06 02:01:00,35.0,6.0,-100.00,SW,230,26.0,34.0,28,0.00,,,-99.99,,2013-03-06 09:01:00,
2013-03-06 02:12:00,35.0,6.0,-100.00,SW,230,24.0,34.0,28,0.00,,,-99.99,,2013-03-06 09:12:00,
2013-03-06 02:21:00,35.0,7.0,-100.00,SW,235,27.0,39.0,30,0.00,,,-99.99,,2013-03-06 09:21:00,
2013-03-06 02:31:00,35.0,8.0,-100.00,SW,235,29.0,39.0,31,0.00,,,-99.99,,2013-03-06 09:31:00,
2013-03-06 02:42:00,35.0,8.0,-100.00,SW,235,26.0,39.0,31,0.00,,,-99.99,,2013-03-06 09:42:00,
2013-03-06 02:51:00,35.0,8.0,-100.00,SW,230,30.0,40.0,32,0.00,,,-99.99,,2013-03-06 09:51:00,
2013-03-06 03:01:00,35.0,9.0,-100.00,SW,235,30.0,37.0,33,0.00,,,-99.99,,2013-03-06 10:01:00,
2013-03-06 03:11:00,35.0,9.0,-100.00,SW,230,29.0,37.0,33,0.00,,,-99.99,,2013-03-06 10:11:00,
2013-03-06 03:21:00,35.0,10.0,-100.00,SW,230,26.0,35.0,35,0.00,,,-99.99,,2013-03-06 10:21:00,
2013-03-06 03:32:00,35.0,10.0,-100.00,SW,235,24.0,34.0,35,0.00,,,-99.99,,2013-03-06 10:32:00,
2013-03-06 03:42:00,35.0,11.0,-100.00,SW,230,24.0,30.0,36,0.00,,,-99.99,,2013-03-06 10:42:00,
2013-03-06 03:51:00,34.0,11.0,-100.00,SW,230,24.0,29.0,36,0.00,,,-99.99,,2013-03-06 10:51:00,
2013-03-06 04:02:00,35.0,11.0,-100.00,SW,235,26.0,35.0,37,0.00,,,-99.99,,2013-03-06 11:02:00,
2013-03-06 04:11:00,34.0,11.0,-100.00,SW,235,24.0,31.0,37,0.00,,,-99.99,,2013-03-06 11:11:00,
2013-03-06 04:22:00,34.0,12.0,-100.00,SW,230,21.0,31.0,38,0.00,,,-99.99,,2013-03-06 11:22:00,
2013-03-06 04:32:00,34.0,12.0,-100.00,WSW,240,20.0,27.0,39,0.00,,,-99.99,,2013-03-06 11:32:00,
2013-03-06 04:42:00,35.0,13.0,-100.00,WSW,240,21.0,26.0,39,0.00,,,-99.99,,2013-03-06 11:42:00,
2013-03-06 04:52:00,34.0,13.0,-100.00,WSW,250,20.0,26.0,40,0.00,,,-99.99,,2013-03-06 11:52:00,
2013-03-06 05:02:00,35.0,13.0,-100.00,WSW,245,21.0,29.0,40,0.00,,,-99.99,,2013-03-06 12:02:00,
2013-03-06 05:21:00,35.0,14.0,-100.00,WSW,245,25.0,31.0,41,0.00,,,-99.99,,2013-03-06 12:21:00,
2013-03-06 05:32:00,35.0,14.0,-100.00,WSW,245,26.0,34.0,41,0.00,,,-99.99,,2013-03-06 12:32:00,
2013-03-06 05:42:00,35.0,14.0,-100.00,SW,235,27.0,32.0,42,0.00,,,-99.99,,2013-03-06 12:42:00,
2013-03-06 05:52:00,35.0,14.0,-100.00,SW,235,27.0,33.0,42,0.00,,,-99.99,,2013-03-06 12:52:00,
2013-03-06 06:02:00,35.0,15.0,-100.00,SW,230,29.0,35.0,42,0.00,,,-99.99,,2013-03-06 13:02:00,
2013-03-06 06:11:00,35.0,15.0,-100.00,SW,235,29.0,37.0,42,0.00,,,-99.99,,2013-03-06 13:11:00,
2013-03-06 06:22:00,35.0,14.0,-100.00,SW,230,27.0,35.0,42,0.00,,,-99.99,,2013-03-06 13:22:00,
2013-03-06 06:32:00,35.0,15.0,-100.00,SW,230,27.0,36.0,42,0.00,,,-99.99,,2013-03-06 13:32:00,
2013-03-06 06:42:00,35.0,15.0,-100.00,SW,235,25.0,32.0,42,0.00,,,-99.99,,2013-03-06 13:42:00,
2013-03-06 06:52:00,35.0,14.0,-100.00,SW,235,26.0,35.0,42,0.00,,,-99.99,,2013-03-06 13:52:00,
2013-03-06 07:01:00,35.0,15.0,-100.00,SW,235,24.0,32.0,42,0.00,,,-99.99,,2013-03-06 14:01:00,
2013-03-06 07:11:00,35.0,14.0,-100.00,SW,230,22.0,30.0,42,0.00,,,-99.99,,2013-03-06 14:11:00,
2013-03-06 07:21:00,35.0,15.0,-100.00,SW,230,23.0,28.0,42,0.00,,,-99.99,,2013-03-06 14:21:00,
2013-03-06 07:32:00,35.0,15.0,-100.00,SW,230,21.0,30.0,42,0.00,,,-99.99,,2013-03-06 14:32:00,
2013-03-06 07:42:00,36.0,15.0,-100.00,SW,235,17.0,27.0,42,0.00,,,-99.99,,2013-03-06 14:42:00,
2013-03-06 07:52:00,36.0,16.0,-100.00,SW,230,18.0,24.0,42,0.00,,,-99.99,,2013-03-06 14:52:00,
2013-03-06 08:02:00,37.0,16.0,-100.00,SW,225,17.0,22.0,42,0.00,,,-99.99,,2013-03-06 15:02:00,
2013-03-06 08:11:00,37.0,17.0,-100.00,SW,230,15.0,22.0,42,0.00,,,-99.99,,2013-03-06 15:11:00,
2013-03-06 08:21:00,39.0,18.0,-100.00,SW,235,17.0,22.0,42,0.00,,,-99.99,,2013-03-06 15:21:00,
2013-03-06 08:32:00,39.0,18.0,-100.00,SW,230,21.0,29.0,42,0.00,,,-99.99,,2013-03-06 15:32:00,
2013-03-06 08:42:00,40.0,19.0,-100.00,SW,225,20.0,27.0,42,0.00,,,-99.99,,2013-03-06 15:42:00,
2013-03-06 08:52:00,41.0,20.0,-100.00,SW,225,17.0,28.0,42,0.00,,,-99.99,,2013-03-06 15:52:00,
2013-03-06 09:01:00,42.0,20.0,-100.00,SW,235,17.0,34.0,42,0.00,,,-99.99,,2013-03-06 16:01:00,
2013-03-06 09:11:00,42.0,20.0,-100.00,SW,235,20.0,27.0,42,0.00,,,-99.99,,2013-03-06 16:11:00,
2013-03-06 09:21:00,43.0,21.0,-100.00,WSW,240,15.0,27.0,42,0.00,,,-99.99,,2013-03-06 16:21:00,
2013-03-06 09:32:00,43.0,21.0,-100.00,WSW,250,24.0,35.0,41,0.00,,,-99.99,,2013-03-06 16:32:00,
2013-03-06 09:42:00,43.0,21.0,-100.00,SW,225,20.0,35.0,41,0.00,,,-99.99,,2013-03-06 16:42:00,
2013-03-06 09:52:00,43.0,22.0,-100.00,SW,235,22.0,34.0,42,0.00,,,-99.99,,2013-03-06 16:52:00,
2013-03-06 10:01:00,43.0,22.0,-100.00,SW,230,27.0,35.0,41,0.00,,,-99.99,,2013-03-06 17:01:00,
2013-03-06 10:11:00,44.0,22.0,-100.00,SW,230,21.0,35.0,42,0.00,,,-99.99,,2013-03-06 17:11:00,
2013-03-06 10:21:00,44.0,22.0,-100.00,SW,235,21.0,33.0,41,0.00,,,-99.99,,2013-03-06 17:21:00,
2013-03-06 10:32:00,44.0,22.0,-100.00,SW,235,26.0,40.0,41,0.00,,,-99.99,,2013-03-06 17:32:00,
2013-03-06 10:41:00,44.0,22.0,-100.00,SW,235,25.0,35.0,41,0.00,,,-99.99,,2013-03-06 17:41:00,
2013-03-06 10:52:00,44.0,22.0,-100.00,SW,230,30.0,37.0,40,0.00,,,-99.99,,2013-03-06 17:52:00,
2013-03-06 11:02:00,44.0,22.0,-100.00,WSW,245,25.0,35.0,40,0.00,,,-99.99,,2013-03-06 18:02:00,
2013-03-06 11:28:00,45.0,22.0,-100.00,WSW,250,22.0,34.0,39,0.00,,,-99.99,,2013-03-06 18:28:00,
2013-03-06 11:42:00,45.0,22.0,-100.00,SW,230,22.0,36.0,38,0.00,,,-99.99,,2013-03-06 18:42:00,
2013-03-06 11:52:00,46.0,22.0,-100.00,WSW,240,17.0,32.0,37,0.00,,,-99.99,,2013-03-06 18:52:00,
2013-03-06 12:02:00,46.0,22.0,-100.00,WSW,255,19.0,24.0,37,0.00,,,-99.99,,2013-03-06 19:02:00,
2013-03-06 12:11:00,46.0,21.0,-100.00,SW,230,22.0,29.0,36,0.00,,,-99.99,,2013-03-06 19:11:00,
2013-03-06 12:21:00,46.0,21.0,-100.00,SW,235,26.0,34.0,36,0.00,,,-99.99,,2013-03-06 19:21:00,
2013-03-06 12:32:00,46.0,21.0,-100.00,SW,230,23.0,34.0,35,0.00,,,-99.99,,2013-03-06 19:32:00,
2013-03-06 12:43:00,47.0,21.0,-100.00,WSW,245,22.0,31.0,35,0.00,,,-99.99,,2013-03-06 19:43:00,
2013-03-06 12:52:00,48.0,21.0,-100.00,SW,235,12.0,22.0,34,0.00,,,-99.99,,2013-03-06 19:52:00,
2013-03-06 13:01:00,47.0,20.0,-100.00,SW,230,19.0,29.0,33,0.00,,,-99.99,,2013-03-06 20:01:00,
2013-03-06 13:11:00,48.0,21.0,-100.00,SW,230,15.0,26.0,33,0.00,,,-99.99,,2013-03-06 20:11:00,
2013-03-06 13:22:00,49.0,20.0,-100.00,SW,235,22.0,32.0,31,0.00,,,-99.99,,2013-03-06 20:22:00,
2013-03-06 13:32:00,49.0,19.0,-100.00,WSW,255,20.0,28.0,30,0.00,,,-99.99,,2013-03-06 20:32:00,
2013-03-06 13:42:00,49.0,20.0,-100.00,WSW,255,14.0,26.0,31,0.00,,,-99.99,,2013-03-06 20:42:00,
2013-03-06 13:52:00,49.0,20.0,-100.00,SW,235,16.0,31.0,30,0.00,,,-99.99,,2013-03-06 20:52:00,
2013-03-06 14:02:00,50.0,20.0,-100.00,SW,225,12.0,22.0,30,0.00,,,-99.99,,2013-03-06 21:02:00,
2013-03-06 14:11:00,48.0,18.0,-100.00,SW,235,22.0,27.0,30,0.00,,,-99.99,,2013-03-06 21:11:00,
2013-03-06 14:22:00,49.0,19.0,-100.00,WSW,245,16.0,27.0,30,0.00,,,-99.99,,2013-03-06 21:22:00,
2013-03-06 14:32:00,49.0,19.0,-100.00,WSW,250,14.0,26.0,30,0.00,,,-99.99,,2013-03-06 21:32:00,
2013-03-06 14:42:00,50.0,20.0,-100.00,WSW,250,20.0,26.0,30,0.00,,,-99.99,,2013-03-06 21:42:00,
2013-03-06 14:51:00,49.0,20.0,-100.00,WSW,255,21.0,29.0,31,0.00,,,-99.99,,2013-03-06 21:51:00,
2013-03-06 15:01:00,49.0,20.0,-100.00,WSW,240,17.0,24.0,31,0.00,,,-99.99,,2013-03-06 22:01:00,
2013-03-06 15:11:00,49.0,20.0,-100.00,WSW,250,14.0,24.0,32,0.00,,,-99.99,,2013-03-06 22:11:00,
2013-03-06 15:21:00,49.0,20.0,-100.00,WSW,250,19.0,32.0,32,0.00,,,-99.99,,2013-03-06 22:21:00,
2013-03-06 15:32:00,48.0,20.0,-100.00,WSW,240,19.0,31.0,32,0.00,,,-99.99,,2013-03-06 22:32:00,
2013-03-06 15:41:00,49.0,20.0,-100.00,WSW,240,15.0,22.0,31,0.00,,,-99.99,,2013-03-06 22:41:00,
2013-03-06 15:51:00,49.0,21.0,-100.00,WSW,255,10.0,21.0,31,0.00,,,-99.99,,2013-03-06 22:51:00,
2013-03-06 16:01:00,48.0,19.0,-100.00,West,260,22.0,27.0,31,0.00,,,-99.99,,2013-03-06 23:01:00,
2013-03-06 16:11:00,48.0,19.0,-100.00,West,260,21.0,27.0,31,0.00,,,-99.99,,2013-03-06 23:11:00,
2013-03-06 16:21:00,48.0,18.0,-100.00,WSW,245,19.0,34.0,30,0.00,,,-99.99,,2013-03-06 23:21:00,
2013-03-06 16:32:00,48.0,17.0,-100.00,WSW,250,26.0,33.0,29,0.00,,,-99.99,,2013-03-06 23:32:00,
2013-03-06 16:42:00,48.0,18.0,-100.00,WSW,240,11.0,26.0,29,0.00,,,-99.99,,2013-03-06 23:42:00,
2013-03-06 16:52:00,48.0,18.0,-100.00,West,270,16.0,23.0,29,0.00,,,-99.99,,2013-03-06 23:52:00,
2013-03-06 17:01:00,47.0,17.0,-100.00,West,260,14.0,28.0,29,0.00,,,-99.99,,2013-03-07 00:01:00,
2013-03-06 17:11:00,48.0,17.0,-100.00,WSW,250,11.0,24.0,29,0.00,,,-99.99,,2013-03-07 00:11:00,
2013-03-06 17:21:00,47.0,17.0,-100.00,WSW,250,7.0,21.0,29,0.00,,,-99.99,,2013-03-07 00:21:00,
2013-03-06 17:32:00,47.0,17.0,-100.00,West,280,7.0,22.0,29,0.00,,,-99.99,,2013-03-07 00:32:00,
2013-03-06 17:41:00,45.0,16.0,-100.00,WSW,250,12.0,19.0,30,0.00,,,-99.99,,2013-03-07 00:41:00,
2013-03-06 17:51:00,44.0,16.0,-100.00,West,270,3.0,23.0,31,0.00,,,-99.99,,2013-03-07 00:51:00,
2013-03-06 18:01:00,44.0,16.0,-100.00,West,265,12.0,24.0,32,0.00,,,-99.99,,2013-03-07 01:01:00,
2013-03-06 18:11:00,43.0,15.0,-100.00,WNW,285,7.0,14.0,32,0.00,,,-99.99,,2013-03-07 01:11:00,
2013-03-06 18:21:00,42.0,15.0,-100.00,NW,325,4.0,9.0,32,0.00,,,-99.99,,2013-03-07 01:21:00,
2013-03-06 18:31:00,42.0,15.0,-100.00,NW,305,6.0,12.0,33,0.00,,,-99.99,,2013-03-07 01:31:00,
2013-03-06 18:41:00,40.0,15.0,-100.00,North,0,7.0,12.0,35,0.00,,,-99.99,,2013-03-07 01:41:00,
2013-03-06 18:51:00,40.0,15.0,-100.00,NW,320,7.0,11.0,35,0.00,,,-99.99,,2013-03-07 01:51:00,
2013-03-06 19:01:00,40.0,16.0,-100.00,NNW,345,6.0,9.0,37,0.00,,,-99.99,,2013-03-07 02:01:00,
2013-03-06 19:11:00,40.0,16.0,-100.00,North,0,4.0,9.0,37,0.00,,,-99.99,,2013-03-07 02:11:00,
2013-03-06 19:21:00,40.0,16.0,-100.00,WNW,285,2.0,15.0,37,0.00,,,-99.99,,2013-03-07 02:21:00,
2013-03-06 19:32:00,38.0,16.0,-100.00,WSW,240,2.0,7.0,39,0.00,,,-99.99,,2013-03-07 02:32:00,
2013-03-06 19:41:00,38.0,16.0,-100.00,WSW,240,2.0,7.0,39,0.00,,,-99.99,,2013-03-07 02:41:00,
2013-03-06 19:51:00,38.0,16.0,-100.00,WSW,240,2.0,7.0,39,0.00,,,-99.99,,2013-03-07 02:51:00,
2013-03-06 20:02:00,40.0,17.0,-100.00,East,90,1.0,8.0,38,0.00,,,-99.99,,2013-03-07 03:02:00,
2013-03-06 20:11:00,41.0,17.0,-100.00,East,85,2.0,7.0,38,0.00,,,-99.99,,2013-03-07 03:11:00,
2013-03-06 20:21:00,42.0,18.0,-100.00,North,0,3.0,12.0,37,0.00,,,-99.99,,2013-03-07 03:21:00,
2013-03-06 20:32:00,41.0,17.0,-100.00,West,265,9.0,15.0,37,0.00,,,-99.99,,2013-03-07 03:32:00,
2013-03-06 20:42:00,42.0,17.0,-100.00,South,190,7.0,30.0,37,0.00,,,-99.99,,2013-03-07 03:42:00,
2013-03-06 20:52:00,41.0,17.0,-100.00,SW,235,16.0,34.0,37,0.00,,,-99.99,,2013-03-07 03:52:00,
2013-03-06 21:01:00,41.0,17.0,-100.00,WSW,240,16.0,29.0,37,0.00,,,-99.99,,2013-03-07 04:01:00,
2013-03-06 21:11:00,41.0,17.0,-100.00,WSW,250,18.0,29.0,37,0.00,,,-99.99,,2013-03-07 04:11:00,
2013-03-06 21:21:00,42.0,18.0,-100.00,WSW,245,21.0,34.0,37,0.00,,,-99.99,,2013-03-07 04:21:00,
2013-03-06 21:31:00,42.0,18.0,-100.00,WSW,245,21.0,30.0,38,0.00,,,-99.99,,2013-03-07 04:31:00,
2013-03-06 21:51:00,41.0,18.0,-100.00,WSW,245,21.0,29.0,38,0.00,,,-99.99,,2013-03-07 04:51:00,
2013-03-06 22:01:00,41.0,17.0,-100.00,West,270,16.0,25.0,38,0.00,,,-99.99,,2013-03-07 05:01:00,
2013-03-06 22:12:00,40.0,17.0,-100.00,WSW,245,9.0,22.0,38,0.00,,,-99.99,,2013-03-07 05:12:00,
2013-03-06 22:22:00,41.0,17.0,-100.00,WSW,255,11.0,24.0,38,0.00,,,-99.99,,2013-03-07 05:22:00,
2013-03-06 22:32:00,40.0,17.0,-100.00,WNW,285,3.0,18.0,38,0.00,,,-99.99,,2013-03-07 05:32:00,
2013-03-06 22:42:00,41.0,17.0,-100.00,West,270,9.0,18.0,38,0.00,,,-99.99,,2013-03-07 05:42:00,
2013-03-06 22:52:00,41.0,18.0,-100.00,WNW,285,7.0,17.0,38,0.00,,,-99.99,,2013-03-07 05:52:00,
2013-03-06 23:01:00,41.0,18.0,-100.00,West,270,10.0,19.0,39,0.00,,,-99.99,,2013-03-07 06:01:00,
2013-03-06 23:11:00,41.0,18.0,-100.00,West,265,12.0,31.0,39,0.00,,,-99.99,,2013-03-07 06:11:00,
2013-03-06 23:21:00,41.0,19.0,-100.00,WSW,250,17.0,30.0,40,0.00,,,-99.99,,2013-03-07 06:21:00,
2013-03-06 23:32:00,41.0,19.0,-100.00,WSW,255,20.0,34.0,41,0.00,,,-99.99,,2013-03-07 06:32:00,
2013-03-06 23:41:00,40.0,19.0,-100.00,West,265,7.0,23.0,41,0.00,,,-99.99,,2013-03-07 06:41:00,
2013-03-06 23:51:00,41.0,19.0,-100.00,WSW,245,13.0,28.0,41,0.00,,,-99.99,,2013-03-07 06:51:00,